Simultaneous Nadir Overpasses (SNOs) Predictions

Prediction of SNOs near US between AQUA and NPP Satellite Orbit:

Table of predicted SNOs near US for the next 10.0 days since TLE Epoch: 5/14/2022
Index Date (AQUA) Time (AQUA) AQUA Lat,Lon Date (NPP) Time (NPP) NPP Lat,Lon Distance(km) Time Diff (sec)
1 05/14/2022 07:34:41 35.26, -83.32 05/14/2022 07:30:34 35.59, -85.06 161.43 247
2 05/14/2022 09:11:02 44.31,-105.17 05/14/2022 09:09:27 44.70,-107.36 178.99 95
3 05/22/2022 06:44:19 34.36, -70.89 05/22/2022 06:39:57 34.68, -72.61 161.69 262
4 05/22/2022 08:20:40 43.41, -92.80 05/22/2022 08:18:50 43.79, -94.98 180.78 110
5 05/22/2022 09:57:43 49.92,-115.03 05/22/2022 09:58:25 50.42,-117.65 194.37 42
